Location: Newark
(9.4667°S, 159.8167°E)
Time: 21:17:26
(UTC+00:00)

Vanguard 1 - Pass Details

Date: 15 November 2019
Orbit: 652 x 3832 km, 34.3° (Epoch: 10 December)

Event Time Altitude Azimuth Distance (km) Brightness Sun altitude
Rises 09:22:33 0° 314° (NW) 3,916 13.4 -28.4°
Reaches altitude 10° 09:24:44 10° 316° (NW) 3,211 12.9 -28.9°
Maximum altitude 09:32:59 72° 40° (NE) 1,925 11.2 -30.7°
Drops below altitude 10° 09:48:54 10° 121° (ESE) 5,843 13.7 -34.1°
Sets 09:54:27 0° 122° (ESE) 7,284 14.3 -35.3°
